Simultaneous Nadir Overpasses (SNOs) Predictions

Prediction of SNOs between METOP-B and TERRA Satellite Orbit:

Table of predicted SNOs for the next 14.0 days since TLE Epoch: 8/13/2022
Index Date (METOP-B) Time (METOP-B) Lat,Lon (METOP-B) SZA (METOP-B ) Date (TERRA) Time (TERRA) Lat,Lon (TERRA) SZA (TERRA ) Distance(km) Time Diff (sec)
1 08/15/2022 00:28:12 -81.13, 32.48 111.03 08/15/2022 00:29:11 -81.14, 32.60 110.99 2.05 59
2 08/15/2022 01:18:50 81.17,-159.15 69.12 08/15/2022 01:18:36 81.16,-159.34 69.09 3.30 14
3 08/17/2022 20:02:31 -81.14, 99.22 110.08 08/17/2022 20:03:21 -81.15, 99.18 110.07 0.88 50
4 08/17/2022 20:53:11 81.15, -93.17 69.97 08/17/2022 20:52:47 81.15, -93.16 69.95 0.54 24
5 08/20/2022 15:36:53 -81.13, 165.17 109.21 08/20/2022 15:37:33 -81.12, 165.31 109.18 2.30 40
6 08/20/2022 16:27:32 81.15, -26.86 70.88 08/20/2022 16:26:58 81.15, -26.70 70.89 2.74 34
7 08/23/2022 11:11:12 -81.15,-127.79 108.18 08/23/2022 11:11:43 -81.15,-127.93 108.18 2.37 31
8 08/23/2022 12:01:51 81.17, 40.17 71.92 08/23/2022 12:01:08 81.17, 40.04 71.89 2.29 43
9 08/26/2022 06:45:32 -81.14, -61.54 107.22 08/26/2022 06:45:53 -81.14, -61.61 107.22 1.18 21



Historial Predications of SNOs between METOP-B and TERRA
